Temp
62 62 62 62 62 62 62 62 62 62 62 61 61 61 59 59 56 55 54 56 58 61 63 59 62 66 66 65 66 65 65 64 63 63 63 63 62 58 57 57 59 59 58 58 57 57 58 59 59 61 61 62 62 62 59 59 58 57 59 63 63 60 59 58 57 62 64 66 65 62 60 58 59 58
59 61 62 62 61 62 62 62 62 62 62 62 61 61 61 60 58 57 55 57 60 59 61 63 62 64 65 66 65 66 65 63 63 63 63 63 62 58 56 56 55 56 57 56 54 54 56 59 60 62 60 61 62 59 58 57 57 58 61 64 63 59 59 58 59 61 63 64 62 60 57 58 58 59
56 57 59 61 62 63 62 62 62 62 62 62 62 61 61 60 60 59 57 55 58 62 59 62 65 64 65 66 65 65 65 64 63 63 63 63 61 58 57 56 56 56 57 55 54 55 56 56 58 60 60 62 61 60 60 59 58 61 63 60 60 60 60 58 59 62 64 63 61 59 59 58 59 60
53 54 56 58 60 62 62 62 62 62 62 62 61 61 61 61 60 60 58 56 56 59 61 62 64 65 64 65 64 64 65 64 61 64 63 63 60 60 59 56 56 57 56 55 56 59 58 56 58 60 60 60 61 61 60 60 62 62 59 57 57 58 58 57 58 63 64 63 61 59 59 59 59 59
51 52 54 55 58 62 62 62 62 62 62 62 62 61 61 60 61 60 58 56 56 58 58 59 61 65 65 63 65 63 63 62 61 62 63 63 61 61 60 59 55 55 55 54 54 54 54 54 60 60 59 59 60 59 58 58 57 58 56 54 54 54 56 57 57 60 63 61 60 59 59 59 58 58
48 50 51 53 55 58 61 62 62 62 62 62 62 61 61 61 60 61 59 58 57 57 57 57 60 61 65 63 65 63 62 62 61 62 63 62 62 61 60 59 58 54 55 54 53 54 53 53 56 55 54 55 55 55 54 53 53 56 53 51 52 56 57 58 56 56 60 60 59 58 58 58 57 57
47 48 49 51 53 55 56 60 62 62 62 62 61 61 61 61 61 61 60 59 57 57 57 59 59 60 62 63 63 64 64 63 62 62 62 62 62 62 60 60 60 54 54 53 53 53 53 53 53 53 53 53 53 53 53 52 52 52 52 49 52 53 54 54 54 54 57 59 59 58 57 57 57 59
47 47 47 49 51 52 53 56 60 62 62 61 61 61 61 61 61 61 61 60 59 58 57 58 59 60 61 62 64 64 65 63 61 62 63 63 62 62 61 60 60 56 53 53 53 53 53 52 52 52 52 52 52 52 51 52 51 51 51 50 51 51 51 51 51 52 54 57 59 57 56 57 59 60
47 47 47 48 50 51 51 54 57 61 61 62 61 61 61 61 61 61 61 60 60 59 58 58 59 59 60 61 63 63 62 61 60 61 62 62 61 61 61 61 61 56 52 53 53 52 52 52 52 51 51 52 51 51 51 51 51 51 51 50 50 50 50 50 50 51 51 51 54 58 57 55 59 61
48 48 48 49 50 51 51 53 55 58 60 61 61 61 61 61 61 60 60 60 60 59 59 59 57 58 58 58 58 60 63 61 59 58 60 61 60 59 58 59 60 59 55 55 55 53 52 52 51 52 51 51 50 50 51 51 51 51 51 50 50 49 49 49 49 49 49 50 50 53 56 55 57 60
49 49 50 50 51 51 52 53 54 55 55 57 59 61 61 61 61 60 60 60 59 59 59 59 59 58 59 59 58 59 62 62 60 57 57 56 57 58 58 57 59 59 56 54 53 54 54 53 53 51 50 50 51 51 50 51 51 51 50 49 49 49 49 48 49 49 48 49 49 49 50 52 55 59
49 50 50 50 51 52 53 52 51 52 51 52 54 58 61 61 60 60 59 59 59 58 58 58 57 58 57 57 58 59 59 58 57 59 58 56 55 56 58 58 57 57 56 55 54 52 52 52 52 50 51 51 51 51 51 51 51 51 50 49 48 48 48 48 49 48 48 48 48 47 47 47 49 54
48 49 49 49 50 51 52 50 50 49 49 49 49 52 57 60 60 60 59 59 58 58 58 57 58 57 57 57 57 56 56 56 56 58 59 58 57 57 56 57 59 57 55 55 55 54 54 53 52 52 51 51 51 51 51 52 52 51 49 48 48 48 48 48 48 48 48 48 48 47 46 46 46 46
47 47 48 48 50 49 50 49 47 46 46 47 47 46 48 52 58 60 59 58 58 58 57 57 57 56 56 56 57 56 57 58 59 58 57 56 56 55 54 53 55 58 56 54 54 55 56 55 54 54 52 53 53 52 51 52 52 50 48 48 48 48 48 48 48 48 48 47 47 46 46 45 45 43
45 46 47 47 49 49 49 49 46 45 44 43 43 43 44 46 48 55 59 59 59 57 57 57 57 57 56 57 58 57 57 58 58 58 57 57 55 54 51 50 52 55 56 54 54 54 56 56 54 54 55 55 53 53 52 51 50 49 48 48 48 48 48 47 47 47 47 47 46 46 45 45 45 42
45 45 46 46 47 47 48 48 47 46 44 43 42 42 42 42 44 45 52 58 58 58 57 57 57 57 57 57 58 57 57 57 57 57 57 57 55 54 53 53 52 54 57 54 52 52 55 56 56 53 54 56 55 54 52 49 49 49 48 48 47 47 47 47 47 46 46 46 46 45 45 44 43 42
44 44 44 44 45 46 48 48 46 45 44 43 43 43 43 44 46 45 43 45 54 60 58 58 58 58 58 57 57 59 58 58 57 56 56 56 56 56 54 54 55 54 57 55 52 51 52 54 53 53 54 56 55 54 50 49 48 48 48 47 47 47 46 46 46 46 45 45 45 44 44 44 43 42
43 43 43 43 43 45 45 45 45 43 42 42 42 43 44 46 48 48 46 45 44 48 56 59 58 59 60 58 59 60 59 58 57 56 55 56 55 56 56 58 59 57 57 55 54 51 50 52 52 51 53 55 55 55 51 48 48 48 47 47 46 46 46 46 46 46 45 44 44 44 44 43 42 41
43 43 43 43 43 43 43 44 43 41 40 40 41 41 43 45 48 52 56 56 54 53 53 57 59 60 60 60 61 61 60 60 59 59 58 57 58 58 59 54 52 52 55 55 53 50 48 51 51 51 50 51 53 53 49 47 47 47 47 46 46 46 46 46 45 45 44 44 44 43 42 42 41 41
43 44 43 43 43 43 42 43 40 40 40 40 40 41 42 45 48 51 54 52 53 56 57 58 59 60 61 56 59 59 60 60 60 58 57 57 56 55 53 52 49 50 52 55 53 50 46 50 50 43 43 48 49 48 50 47 47 47 47 46 46 46 45 45 45 44 44 43 43 43 42 41 41 40
42 43 43 44 43 42 42 41 39 38 40 39 40 40 41 43 45 48 53 51 47 47 48 49 50 51 51 50 50 50 51 56 58 58 56 55 55 53 51 51 48 49 49 52 54 50 46 48 47 43 43 43 43 44 47 48 47 47 46 46 46 46 45 45 44 44 44 43 43 42 42 41 41 42
42 42 44 45 42 41 41 39 38 38 39 39 40 40 40 41 43 46 51 55 53 47 45 46 46 47 47 48 47 48 48 48 53 58 56 55 54 53 52 51 49 49 49 50 53 50 47 47 46 43 43 43 43 42 42 46 47 46 46 46 46 45 45 44 44 43 43 43 42 42 42 42 42 42
40 40 42 43 42 41 40 38 38 38 39 39 39 40 40 40 41 44 48 52 53 52 51 51 51 50 49 51 54 54 47 48 52 59 59 57 54 53 52 52 49 47 47 50 53 48 44 45 46 46 43 40 42 43 43 44 45 46 46 46 45 45 44 44 43 44 43 43 42 42 42 42 42 41
39 39 40 40 39 38 38 37 37 38 38 39 40 41 40 40 41 46 48 51 53 53 53 53 53 53 55 55 55 56 53 52 56 58 59 58 56 54 53 52 51 50 49 50 52 49 46 47 45 50 47 42 39 41 43 43 44 45 45 44 43 43 44 43 43 43 43 43 43 43 43 43 43 42
37 37 38 39 40 38 38 38 38 38 38 39 40 41 39 40 41 42 44 49 50 53 52 52 52 53 53 54 55 55 55 53 55 57 56 59 58 56 54 52 50 51 48 50 50 50 45 46 46 46 44 44 41 40 42 42 43 43 44 43 42 42 43 43 43 42 42 42 42 42 42 43 44 43
37 37 37 38 39 38 37 37 38 38 38 38 40 39 38 38 39 41 43 48 51 51 50 50 49 49 50 51 51 52 53 53 53 55 57 57 58 58 57 55 52 51 48 49 48 50 47 45 46 45 43 42 41 41 40 41 42 42 43 44 43 43 44 42 42 41 41 41 41 41 42 43 43 43
36 37 37 39 39 37 37 38 38 38 38 39 38 38 38 39 39 43 47 48 50 48 48 47 46 46 46 46 47 48 47 47 48 50 51 51 53 53 52 53 54 54 51 50 52 51 49 47 47 46 43 43 41 41 40 39 39 42 43 43 44 44 44 43 42 41 41 41 41 42 41 41 41 42
36 36 37 38 37 37 37 37 37 38 38 37 37 38 38 39 40 42 43 45 45 44 44 45 44 44 44 44 44 44 45 46 47 47 48 48 49 49 48 48 48 50 50 51 51 51 50 48 47 47 46 43 41 40 39 41 41 41 40 42 43 43 43 43 42 41 41 41 41 41 40 40 40 40
37 37 38 38 38 37 38 37 38 38 38 37 37 38 38 41 41 40 40 42 43 42 42 42 42 42 43 43 44 45 45 45 46 46 46 46 46 47 47 46 46 47 50 51 51 51 50 49 47 47 46 45 43 42 41 39 40 40 41 40 40 41 42 43 42 41 41 41 41 41 40 40 40 40
37 37 38 38 38 38 38 37 37 37 37 37 38 37 39 39 39 39 39 39 39 40 41 41 41 42 43 43 44 45 45 45 45 46 46 46 46 47 46 45 45 46 46 48 50 50 50 49 48 47 46 45 44 42 42 41 40 40 41 41 41 41 42 42 42 42 41 41 41 41 41 41 41 40
37 38 38 38 38 38 38 37 37 37 38 37 37 37 37 37 38 39 39 38 38 38 39 40 41 42 42 43 43 43 43 43 43 44 44 45 44 45 45 44 43 43 45 46 47 49 50 49 48 48 45 44 44 43 43 42 40 40 41 41 41 39 40 42 42 41 41 41 41 40 40 40 40 41
38 38 38 38 38 37 37 36 36 36 36 36 36 36 35 36 37 38 40 40 39 38 39 39 40 40 42 41 41 42 42 42 42 43 43 43 43 43 44 42 41 43 43 45 45 46 44 48 47 47 46 45 43 43 43 42 41 41 41 41 41 41 41 41 41 41 41 41 40 39 39 40 39 39
38 38 37 36 36 36 35 35 34 34 34 34 35 35 35 35 35 35 36 35 37 38 38 38 37 37 39 40 41 41 41 40 41 42 42 42 42 42 42 41 41 41 41 41 42 43 44 45 45 46 46 46 45 44 42 40 41 42 41 41 41 41 41 42 41 40 41 41 39 39 38 39 39 39
36 36 35 35 35 34 34 34 34 34 34 34 34 34 35 34 34 34 34 35 35 36 37 37 37 37 37 37 38 39 39 40 41 41 40 41 41 40 40 39 39 40 40 41 41 42 43 44 44 44 44 42 43 43 44 42 41 42 42 42 41 40 41 41 41 41 41 41 39 38 37 37 38 38
34 34 34 35 35 35 34 34 34 34 34 34 34 34 34 34 34 34 34 34 35 34 35 36 36 37 37 37 37 37 37 38 39 40 40 41 41 40 40 39 39 39 40 40 41 42 43 43 43 42 42 43 42 42 44 44 43 42 42 42 42 41 40 41 41 41 41 40 40 37 36 36 37 37
33 33 33 34 34 34 34 34 34 34 34 34 34 34 34 34 34 34 33 34 35 35 35 35 35 36 36 37 37 37 37 38 38 39 39 39 38 39 39 39 39 39 40 40 40 41 42 43 43 41 39 39 38 37 37 41 44 43 41 39 41 41 41 41 40 40 39 38 38 38 36 36 37 37
33 33 33 33 34 34 34 34 34 34 34 34 34 34 33 33 33 34 34 35 34 34 35 36 36 36 36 36 37 37 37 37 37 37 38 38 38 39 38 38 37 38 39 39 41 41 41 40 41 40 38 36 35 33 33 36 39 42 43 40 39 40 40 39 39 37 38 39 37 37 37 36 36 36
33 33 33 34 33 33 34 34 34 35 34 34 34 34 34 34 34 34 35 35 34 34 34 34 35 36 36 36 36 36 37 37 37 37 37 37 37 37 37 37 37 37 38 39 40 40 41 40 39 38 38 36 34 34 34 37 37 37 40 42 39 37 38 38 37 36 34 34 35 34 35 36 35 35
34 33 34 33 34 34 33 33 34 34 35 34 34 34 34 34 34 34 34 34 34 34 34 34 34 36 36 36 36 36 36 36 36 36 36 36 36 36 36 36 36 37 37 37 38 39 40 39 39 38 38 37 36 36 37 36 34 35 37 41 40 38 38 38 36 35 35 34 34 35 35 35 35 36
34 34 34 34 34 33 33 33 32 33 34 34 34 34 34 34 34 34 34 34 34 35 35 35 35 36 36 36 36 37 36 35 35 35 35 35 35 35 35 36 36 36 36 36 35 36 37 37 38 38 37 37 37 37 37 36 35 36 37 37 40 41 38 37 36 36 34 35 36 36 34 34 34 33
33 33 33 33 33 33 33 32 32 32 33 33 34 35 35 34 34 34 35 35 35 35 35 36 36 36 36 36 36 36 36 36 36 36 36 36 35 35 35 35 36 36 35 34 34 34 34 34 35 36 38 38 38 40 41 38 35 35 35 35 37 39 41 41 40 38 34 35 37 36 34 34 33 31
32 32 33 33 33 33 33 32 31 31 32 32 32 33 35 36 35 36 36 36 35 36 36 36 36 36 36 36 36 36 36 35 35 35 35 35 36 35 35 35 35 35 35 33 33 33 34 37 37 38 39 39 40 38 34 34 33 34 34 35 35 37 38 40 41 41 40 38 36 33 30 31 31 31
32 31 32 33 33 33 32 31 31 31 31 31 32 32 34 35 36 35 35 35 35 35 35 35 35 36 36 36 35 35 35 35 35 35 34 34 34 34 34 34 34 34 34 34 34 34 35 36 37 37 38 38 37 37 34 34 35 35 35 35 35 35 36 37 38 38 37 37 38 38 39 36 33 30
31 31 32 32 32 31 31 31 31 30 30 31 31 32 32 33 34 35 34 34 34 34 35 35 35 34 35 35 35 35 34 33 33 34 34 34 34 34 35 35 35 35 35 35 35 35 36 36 36 38 38 36 36 36 34 34 34 35 34 34 34 35 34 35 36 37 37 37 37 37 38 38 37 38
31 31 31 31 31 32 32 32 31 30 30 30 31 31 32 32 33 34 34 34 34 34 34 34 34 34 34 34 34 34 33 34 34 33 34 34 34 34 34 35 35 35 35 35 36 35 36 36 36 36 35 35 35 35 34 35 34 34 34 35 34 34 33 34 36 35 35 34 35 36 36 37 38 38
MSLP
1014.84 1014.48 1014.24 1014.08 1013.80 1013.64 1013.52 1013.44 1013.36 1013.28 1013.28 1013.36 1013.48 1013.56 1013.80 1014.00 1014.36 1014.40 1014.40 1013.96 1013.92 1013.48 1013.40 1013.72 1013.36 1013.28 1013.48 1013.60 1013.68 1013.88 1014.04 1014.16 1014.52 1014.88 1015.12 1015.32 1015.64 1015.96 1016.32 1016.56 1016.76 1017.04 1017.32 1017.60 1017.72 1017.88 1018.08 1018.28 1018.56 1018.84 1019.12 1019.40 1019.68 1019.96 1020.48 1020.80 1021.08 1021.32 1021.52 1021.72 1021.84 1022.00 1022.12 1022.32 1022.44 1022.56 1022.76 1022.92 1023.16 1023.40 1023.56 1023.76 1023.92 1024.04
1015.16 1014.56 1014.16 1013.84 1013.60 1013.40 1013.32 1013.20 1013.08 1013.08 1013.00 1013.08 1013.16 1013.28 1013.36 1013.48 1013.72 1013.68 1013.88 1013.40 1012.96 1013.04 1012.92 1012.88 1012.96 1012.92 1013.04 1013.12 1013.32 1013.40 1013.56 1013.72 1014.08 1014.44 1014.68 1014.88 1015.12 1015.48 1015.88 1016.20 1016.44 1016.68 1016.92 1017.28 1017.52 1017.72 1017.92 1018.08 1018.36 1018.64 1018.96 1019.24 1019.52 1019.76 1020.24 1020.68 1020.96 1021.16 1021.40 1021.60 1021.76 1022.00 1022.08 1022.32 1022.48 1022.60 1022.72 1022.88 1023.12 1023.36 1023.56 1023.68 1023.84 1024.00
1015.52 1014.96 1014.40 1013.84 1013.52 1013.20 1013.08 1012.92 1012.84 1012.80 1012.76 1012.72 1012.76 1012.84 1012.96 1013.04 1013.12 1013.28 1013.36 1013.52 1012.40 1012.32 1012.72 1012.40 1012.16 1012.40 1012.44 1012.64 1012.84 1013.00 1013.12 1013.36 1013.68 1014.00 1014.28 1014.48 1014.68 1015.12 1015.56 1015.84 1016.08 1016.28 1016.56 1016.92 1017.24 1017.52 1017.72 1017.92 1018.12 1018.40 1018.72 1019.00 1019.36 1019.64 1019.96 1020.48 1020.80 1021.00 1021.20 1021.44 1021.64 1021.88 1022.04 1022.28 1022.48 1022.60 1022.72 1022.88 1023.08 1023.32 1023.52 1023.64 1023.80 1024.00
1015.80 1015.36 1014.76 1014.12 1013.60 1013.12 1012.84 1012.64 1012.56 1012.52 1012.44 1012.44 1012.48 1012.52 1012.56 1012.60 1012.60 1012.80 1012.92 1012.96 1012.40 1011.96 1011.92 1011.96 1011.96 1011.92 1012.12 1012.24 1012.60 1012.76 1012.84 1013.00 1013.28 1013.56 1013.88 1014.04 1014.44 1014.88 1015.20 1015.52 1015.72 1015.96 1016.24 1016.56 1016.92 1017.24 1017.48 1017.72 1017.92 1018.16 1018.48 1018.76 1019.12 1019.44 1019.76 1020.16 1020.52 1020.76 1021.04 1021.28 1021.52 1021.72 1021.96 1022.24 1022.44 1022.56 1022.68 1022.80 1023.00 1023.24 1023.44 1023.64 1023.80 1023.96
1016.16 1015.64 1015.04 1014.48 1013.88 1013.16 1012.76 1012.48 1012.36 1012.28 1012.16 1012.12 1012.08 1012.08 1012.16 1012.20 1012.20 1012.36 1012.48 1012.56 1012.24 1011.96 1011.76 1011.80 1011.76 1011.64 1011.80 1012.20 1012.04 1012.40 1012.60 1012.88 1013.16 1013.32 1013.48 1013.80 1014.16 1014.44 1014.80 1015.16 1015.48 1015.64 1015.92 1016.24 1016.60 1016.96 1017.28 1017.52 1017.68 1017.88 1018.16 1018.44 1018.80 1019.16 1019.48 1019.88 1020.28 1020.56 1020.88 1021.16 1021.40 1021.60 1021.84 1022.08 1022.32 1022.48 1022.60 1022.76 1022.92 1023.12 1023.36 1023.56 1023.76 1023.92
1016.60 1016.04 1015.44 1014.64 1014.16 1013.52 1012.80 1012.28 1012.12 1012.00 1011.96 1011.88 1011.80 1011.72 1011.72 1011.72 1011.72 1011.68 1011.88 1011.76 1011.84 1011.60 1011.60 1011.68 1011.56 1011.52 1011.40 1011.76 1011.64 1011.96 1012.32 1012.52 1012.80 1013.04 1013.28 1013.56 1013.72 1014.00 1014.36 1014.76 1015.12 1015.40 1015.56 1015.88 1016.20 1016.60 1016.96 1017.28 1017.48 1017.68 1017.96 1018.20 1018.52 1018.84 1019.20 1019.60 1020.04 1020.36 1020.68 1021.00 1021.28 1021.48 1021.64 1021.84 1022.08 1022.32 1022.48 1022.68 1022.84 1023.00 1023.20 1023.44 1023.64 1023.84
1016.88 1016.36 1015.84 1015.16 1014.52 1013.96 1013.40 1012.48 1011.88 1011.68 1011.60 1011.48 1011.44 1011.32 1011.24 1011.24 1011.12 1011.16 1011.20 1011.44 1011.44 1011.36 1011.16 1011.04 1011.28 1011.28 1011.24 1011.20 1011.36 1011.48 1011.64 1011.80 1012.12 1012.52 1012.84 1013.12 1013.48 1013.68 1013.96 1014.28 1014.60 1014.96 1015.24 1015.48 1015.80 1016.20 1016.56 1016.92 1017.24 1017.44 1017.76 1018.00 1018.28 1018.60 1018.92 1019.32 1019.76 1020.16 1020.48 1020.84 1021.08 1021.28 1021.44 1021.64 1021.84 1022.08 1022.28 1022.48 1022.72 1022.92 1023.08 1023.32 1023.52 1023.72
1016.92 1016.56 1016.12 1015.52 1015.00 1014.40 1013.84 1012.96 1012.04 1011.52 1011.32 1011.16 1011.04 1010.96 1010.80 1010.72 1010.64 1010.60 1010.68 1010.64 1010.72 1010.76 1011.00 1010.76 1010.76 1010.72 1010.80 1010.84 1010.80 1011.04 1011.24 1011.60 1012.00 1012.12 1012.36 1012.64 1012.96 1013.24 1013.64 1013.96 1014.16 1014.44 1014.88 1015.12 1015.44 1015.80 1016.16 1016.56 1016.92 1017.24 1017.52 1017.80 1018.08 1018.36 1018.72 1019.08 1019.48 1019.92 1020.24 1020.60 1020.88 1021.08 1021.28 1021.44 1021.64 1021.84 1022.08 1022.28 1022.48 1022.76 1022.96 1023.16 1023.36 1023.52
1016.88 1016.56 1016.16 1015.64 1015.16 1014.60 1014.08 1013.24 1012.44 1011.56 1011.12 1010.84 1010.68 1010.56 1010.40 1010.32 1010.20 1010.20 1010.16 1010.20 1010.28 1010.40 1010.40 1010.32 1010.16 1010.12 1010.24 1010.24 1010.40 1010.68 1011.20 1011.52 1011.80 1011.92 1012.00 1012.20 1012.48 1012.88 1013.24 1013.60 1013.84 1014.12 1014.52 1014.80 1015.12 1015.44 1015.80 1016.20 1016.60 1016.96 1017.20 1017.52 1017.80 1018.12 1018.48 1018.84 1019.24 1019.68 1020.04 1020.40 1020.72 1020.96 1021.16 1021.32 1021.52 1021.72 1021.92 1022.08 1022.24 1022.44 1022.72 1022.96 1023.12 1023.32
1016.72 1016.36 1015.92 1015.48 1015.04 1014.56 1014.08 1013.40 1012.72 1011.96 1011.24 1010.72 1010.36 1010.16 1009.96 1009.84 1009.80 1009.72 1009.64 1009.68 1009.80 1009.92 1009.88 1009.84 1009.92 1010.04 1010.20 1010.44 1010.56 1010.60 1010.60 1011.12 1011.60 1011.96 1012.08 1012.24 1012.64 1013.12 1013.40 1013.56 1013.72 1014.00 1014.44 1014.80 1015.12 1015.36 1015.68 1016.00 1016.32 1016.64 1016.92 1017.24 1017.56 1017.84 1018.16 1018.56 1018.96 1019.36 1019.76 1020.12 1020.48 1020.76 1021.00 1021.20 1021.40 1021.60 1021.80 1021.96 1022.12 1022.28 1022.48 1022.76 1022.96 1023.12
1016.40 1016.04 1015.64 1015.16 1014.76 1014.36 1013.84 1013.28 1012.76 1012.32 1011.92 1011.36 1010.52 1009.84 1009.48 1009.32 1009.32 1009.24 1009.16 1009.20 1009.28 1009.40 1009.52 1009.48 1009.48 1009.76 1009.80 1009.88 1010.24 1010.20 1010.04 1010.28 1010.60 1011.36 1011.96 1012.36 1012.72 1012.84 1013.00 1013.32 1013.48 1013.68 1014.12 1014.32 1014.48 1014.76 1015.16 1015.60 1016.04 1016.36 1016.64 1016.96 1017.24 1017.56 1017.88 1018.20 1018.60 1019.00 1019.40 1019.76 1020.12 1020.44 1020.76 1021.00 1021.20 1021.40 1021.60 1021.80 1021.96 1022.16 1022.36 1022.60 1022.84 1022.96
1016.44 1016.08 1015.68 1015.28 1014.84 1014.40 1013.88 1013.68 1013.32 1013.00 1012.68 1012.08 1011.28 1010.04 1009.32 1008.96 1008.84 1008.76 1008.68 1008.68 1008.76 1008.96 1009.08 1009.12 1009.24 1009.40 1009.60 1009.84 1009.76 1009.84 1010.16 1010.48 1010.60 1010.76 1011.04 1011.60 1012.24 1012.48 1012.48 1012.36 1012.76 1013.24 1013.72 1014.16 1014.64 1014.96 1015.32 1015.60 1015.88 1016.24 1016.52 1016.72 1017.00 1017.32 1017.64 1017.96 1018.36 1018.72 1019.12 1019.48 1019.84 1020.16 1020.48 1020.76 1021.00 1021.24 1021.44 1021.64 1021.84 1022.04 1022.28 1022.52 1022.72 1022.88
1016.60 1016.16 1015.76 1015.36 1014.92 1014.44 1014.00 1013.72 1013.48 1013.28 1013.08 1012.72 1012.00 1010.92 1010.00 1009.00 1008.52 1008.32 1008.28 1008.24 1008.24 1008.32 1008.56 1008.72 1008.80 1009.12 1009.28 1009.28 1009.44 1009.72 1009.88 1009.84 1009.96 1010.44 1010.60 1010.76 1011.08 1011.56 1012.12 1012.32 1012.40 1012.56 1013.04 1013.60 1014.12 1014.56 1014.84 1015.36 1015.84 1016.16 1016.56 1016.72 1016.96 1017.20 1017.40 1017.80 1018.12 1018.44 1018.84 1019.20 1019.60 1019.92 1020.24 1020.52 1020.80 1021.04 1021.28 1021.48 1021.68 1021.92 1022.16 1022.40 1022.60 1022.80
1016.72 1016.28 1015.88 1015.40 1014.88 1014.44 1014.00 1013.56 1013.16 1012.84 1012.48 1012.12 1012.16 1012.00 1011.36 1010.24 1008.84 1008.04 1007.80 1007.84 1007.80 1007.84 1008.04 1008.04 1008.24 1008.64 1008.64 1008.84 1008.84 1008.92 1009.00 1009.16 1009.60 1010.08 1010.40 1010.68 1010.92 1011.48 1011.88 1012.28 1012.48 1012.60 1012.96 1013.52 1014.00 1014.12 1014.44 1014.84 1015.40 1015.80 1016.08 1016.28 1016.72 1017.00 1017.32 1017.44 1017.76 1018.12 1018.52 1018.96 1019.28 1019.60 1019.92 1020.24 1020.48 1020.76 1021.04 1021.32 1021.56 1021.80 1022.04 1022.24 1022.48 1022.68
1016.84 1016.32 1015.88 1015.44 1014.84 1014.32 1013.84 1013.36 1013.00 1012.76 1012.36 1012.00 1011.48 1011.00 1010.76 1010.60 1010.16 1008.84 1007.60 1007.24 1007.32 1007.40 1007.36 1007.36 1007.68 1007.72 1007.92 1008.16 1008.28 1008.36 1008.60 1008.88 1008.96 1009.24 1009.60 1009.88 1010.52 1010.96 1011.56 1012.16 1012.32 1012.40 1012.48 1013.04 1013.44 1013.84 1014.00 1014.36 1014.72 1015.08 1015.36 1015.72 1016.24 1016.60 1016.76 1017.00 1017.40 1017.80 1018.24 1018.60 1018.92 1019.20 1019.56 1019.88 1020.16 1020.52 1020.84 1021.12 1021.36 1021.60 1021.84 1022.08 1022.28 1022.48
1017.08 1016.52 1015.92 1015.44 1014.96 1014.48 1014.00 1013.56 1013.12 1012.60 1012.20 1011.88 1011.44 1010.88 1010.28 1009.72 1009.04 1008.72 1008.32 1007.20 1006.68 1006.64 1006.72 1006.84 1006.84 1007.12 1007.16 1007.28 1007.68 1007.84 1008.12 1008.32 1008.68 1008.76 1009.08 1009.32 1009.64 1010.20 1010.60 1010.80 1011.08 1011.00 1011.56 1012.32 1012.92 1013.24 1013.64 1013.92 1014.12 1014.64 1014.80 1015.12 1015.56 1015.88 1016.24 1016.72 1017.08 1017.52 1017.92 1018.24 1018.56 1018.92 1019.24 1019.56 1019.92 1020.28 1020.60 1020.88 1021.16 1021.40 1021.68 1021.88 1022.08 1022.28
1017.28 1016.72 1016.16 1015.56 1015.04 1014.52 1014.00 1013.60 1013.28 1012.92 1012.32 1011.48 1010.88 1010.48 1009.84 1009.12 1008.40 1007.76 1007.36 1007.32 1006.96 1006.24 1006.12 1006.04 1006.04 1006.00 1006.08 1006.64 1006.64 1006.76 1007.12 1007.44 1007.92 1008.20 1008.60 1008.84 1009.08 1009.20 1009.68 1009.80 1010.12 1010.72 1010.96 1011.68 1012.40 1012.64 1013.00 1013.40 1013.76 1014.08 1014.40 1014.68 1015.12 1015.68 1016.08 1016.40 1016.76 1017.12 1017.56 1017.92 1018.24 1018.60 1018.92 1019.28 1019.64 1020.00 1020.36 1020.72 1021.04 1021.28 1021.52 1021.72 1021.92 1022.16
1017.48 1017.00 1016.52 1015.88 1015.20 1014.60 1014.20 1013.88 1013.48 1013.08 1012.60 1011.96 1011.12 1010.20 1009.48 1008.84 1007.92 1007.12 1006.64 1006.48 1006.48 1006.52 1006.08 1005.68 1005.52 1005.32 1005.72 1005.76 1005.64 1005.88 1006.24 1006.80 1007.12 1007.60 1007.84 1008.24 1008.60 1008.76 1008.68 1008.56 1008.68 1009.20 1009.92 1010.20 1011.04 1012.16 1012.88 1013.16 1013.60 1013.80 1014.04 1014.40 1014.84 1015.24 1015.64 1016.16 1016.52 1016.88 1017.24 1017.60 1018.00 1018.32 1018.68 1019.00 1019.36 1019.76 1020.16 1020.56 1020.88 1021.16 1021.40 1021.64 1021.88 1022.12
1017.60 1017.08 1016.64 1016.12 1015.56 1014.96 1014.48 1014.04 1013.84 1013.40 1012.68 1011.96 1011.20 1010.36 1009.40 1008.52 1007.72 1006.92 1006.12 1005.72 1005.72 1005.76 1005.84 1005.60 1005.04 1004.92 1004.96 1004.92 1004.92 1005.12 1005.60 1005.76 1005.88 1006.08 1006.44 1007.00 1007.36 1007.68 1008.16 1008.80 1009.20 1009.76 1010.00 1010.52 1011.00 1011.40 1012.44 1012.96 1013.36 1013.52 1013.92 1014.28 1014.64 1015.04 1015.52 1015.96 1016.36 1016.68 1017.08 1017.44 1017.84 1018.16 1018.48 1018.84 1019.16 1019.60 1020.04 1020.40 1020.76 1021.04 1021.32 1021.56 1021.80 1022.08
1017.60 1017.12 1016.64 1016.16 1015.68 1015.16 1014.68 1014.12 1013.84 1013.52 1012.88 1012.04 1011.12 1010.16 1009.20 1008.28 1007.32 1006.44 1005.68 1005.16 1004.92 1004.92 1004.84 1004.80 1004.64 1004.48 1004.40 1004.40 1004.56 1004.84 1005.08 1005.32 1005.76 1006.32 1006.68 1007.12 1007.64 1008.16 1008.80 1008.88 1009.40 1009.52 1009.96 1009.96 1010.16 1010.76 1012.12 1012.40 1012.80 1013.88 1014.36 1014.40 1014.72 1015.08 1015.36 1015.76 1016.16 1016.56 1016.92 1017.32 1017.64 1018.00 1018.36 1018.68 1019.08 1019.48 1019.88 1020.24 1020.64 1020.92 1021.20 1021.52 1021.80 1022.12
1017.68 1017.28 1016.72 1016.24 1015.80 1015.32 1014.80 1014.20 1013.80 1013.28 1012.68 1011.88 1010.96 1010.08 1009.12 1008.12 1007.28 1006.16 1005.16 1004.56 1004.28 1004.24 1004.32 1004.24 1004.16 1004.08 1004.00 1004.08 1004.20 1004.44 1004.56 1004.84 1005.40 1005.96 1006.56 1006.84 1007.04 1007.80 1008.36 1008.68 1009.40 1009.52 1010.00 1010.00 1010.00 1010.48 1011.72 1012.36 1012.80 1014.00 1014.60 1014.68 1015.08 1015.32 1015.36 1015.64 1015.92 1016.36 1016.76 1017.12 1017.48 1017.84 1018.24 1018.56 1019.00 1019.36 1019.76 1020.16 1020.56 1020.88 1021.24 1021.52 1021.84 1022.08
1017.80 1017.40 1016.84 1016.36 1015.92 1015.48 1014.88 1014.28 1013.76 1013.12 1012.48 1011.68 1010.84 1010.04 1009.08 1008.00 1006.96 1005.84 1004.92 1004.16 1003.68 1003.60 1003.80 1003.92 1003.92 1003.92 1003.80 1003.72 1003.88 1004.12 1004.36 1004.72 1004.92 1005.28 1005.60 1006.00 1006.72 1007.16 1007.28 1007.56 1008.44 1009.00 1009.56 1009.52 1009.64 1009.96 1011.12 1012.12 1012.84 1013.80 1014.76 1014.96 1015.56 1015.76 1015.80 1015.72 1015.92 1016.24 1016.64 1017.00 1017.40 1017.80 1018.12 1018.52 1018.92 1019.28 1019.72 1020.12 1020.48 1020.92 1021.24 1021.52 1021.76 1022.08
1017.88 1017.40 1016.88 1016.40 1016.00 1015.64 1015.04 1014.40 1013.72 1013.08 1012.44 1011.72 1010.80 1009.84 1008.92 1007.88 1006.88 1005.60 1004.88 1004.12 1003.52 1003.36 1003.44 1003.64 1003.84 1003.88 1003.84 1003.88 1003.80 1003.84 1004.08 1004.32 1004.52 1004.48 1004.60 1005.40 1005.88 1006.16 1006.72 1007.20 1008.36 1009.24 1009.48 1009.32 1009.32 1010.08 1011.64 1011.76 1012.48 1012.60 1013.92 1015.04 1015.80 1015.96 1016.00 1015.92 1016.00 1016.28 1016.64 1017.12 1017.60 1017.84 1018.20 1018.60 1018.92 1019.28 1019.68 1020.12 1020.56 1020.96 1021.28 1021.52 1021.72 1022.12
1017.84 1017.44 1016.92 1016.32 1015.88 1015.48 1014.88 1014.28 1013.60 1012.96 1012.32 1011.68 1010.64 1009.64 1008.80 1007.84 1006.32 1005.08 1004.72 1003.84 1003.40 1003.08 1002.96 1002.92 1003.16 1003.20 1003.20 1003.40 1003.48 1003.52 1003.84 1004.08 1004.04 1004.08 1004.28 1004.60 1004.96 1005.56 1006.04 1006.48 1006.76 1006.76 1007.28 1008.20 1008.48 1009.28 1010.88 1010.84 1011.68 1011.92 1011.76 1013.00 1015.04 1015.96 1016.04 1016.24 1016.28 1016.48 1016.72 1017.24 1017.80 1018.20 1018.52 1018.84 1019.20 1019.44 1019.76 1020.24 1020.68 1021.04 1021.36 1021.60 1021.68 1022.08
1018.32 1017.68 1017.08 1016.52 1015.92 1015.44 1014.88 1014.20 1013.52 1012.84 1012.16 1011.48 1010.56 1009.60 1008.80 1007.88 1006.44 1005.20 1004.56 1003.64 1002.96 1002.68 1002.64 1002.64 1002.80 1002.96 1003.04 1003.12 1003.12 1003.16 1003.32 1003.68 1003.76 1003.80 1003.88 1004.04 1004.36 1004.84 1005.48 1005.96 1006.44 1006.32 1006.76 1007.24 1007.76 1008.68 1010.12 1010.56 1011.20 1011.68 1012.32 1012.92 1014.08 1015.12 1016.08 1016.28 1016.60 1016.72 1016.92 1017.16 1017.72 1018.32 1018.60 1019.04 1019.40 1019.92 1020.28 1020.60 1020.92 1021.24 1021.56 1021.76 1021.88 1022.00
1018.56 1018.04 1017.44 1016.80 1016.08 1015.56 1014.92 1014.24 1013.52 1012.80 1012.12 1011.28 1010.36 1009.52 1008.48 1006.96 1005.32 1004.04 1003.68 1003.40 1002.84 1002.60 1002.52 1002.60 1002.80 1002.96 1003.04 1003.04 1003.04 1003.04 1003.04 1003.24 1003.44 1003.48 1003.56 1003.68 1003.84 1004.12 1004.28 1004.60 1005.36 1006.08 1006.56 1007.12 1007.40 1007.80 1008.96 1010.40 1010.04 1010.76 1012.24 1013.20 1014.60 1014.32 1015.36 1016.44 1016.76 1017.00 1017.16 1017.52 1017.80 1018.12 1018.36 1018.96 1019.52 1020.08 1020.52 1020.88 1021.28 1021.52 1021.80 1022.00 1022.16 1022.16
1019.00 1018.36 1017.80 1017.08 1016.36 1015.76 1015.04 1014.32 1013.60 1012.92 1012.20 1011.32 1010.56 1009.48 1008.08 1006.64 1005.36 1003.92 1003.32 1002.92 1002.64 1002.68 1002.80 1002.84 1003.04 1003.32 1003.40 1003.40 1003.40 1003.36 1003.28 1003.48 1003.60 1003.64 1003.64 1003.76 1003.88 1004.04 1004.28 1004.36 1004.48 1004.72 1005.60 1006.48 1006.76 1007.28 1007.80 1008.76 1009.28 1009.44 1010.92 1012.00 1013.36 1015.00 1015.00 1015.48 1016.68 1017.12 1017.44 1017.76 1018.04 1018.32 1018.64 1018.92 1019.52 1020.12 1020.56 1020.96 1021.40 1021.72 1022.04 1022.28 1022.44 1022.56
1019.24 1018.60 1017.96 1017.32 1016.60 1015.92 1015.20 1014.44 1013.76 1013.04 1012.36 1011.72 1010.72 1009.52 1008.20 1006.96 1005.92 1005.12 1004.32 1003.72 1003.48 1003.36 1003.36 1003.56 1003.68 1003.80 1003.84 1003.72 1003.92 1004.20 1004.00 1003.60 1003.80 1004.08 1004.16 1004.16 1004.24 1004.36 1004.60 1004.80 1004.88 1005.16 1005.64 1006.28 1006.84 1007.24 1007.60 1008.36 1009.28 1009.56 1009.80 1010.80 1012.20 1013.44 1014.88 1015.52 1015.72 1016.28 1017.08 1017.96 1018.24 1018.56 1018.88 1019.12 1019.64 1020.20 1020.68 1021.04 1021.48 1021.84 1022.16 1022.52 1022.68 1022.72
1019.36 1018.80 1018.12 1017.44 1016.80 1016.16 1015.44 1014.72 1014.00 1013.20 1012.60 1011.92 1010.96 1009.88 1008.76 1007.56 1006.76 1006.32 1005.72 1005.08 1004.56 1004.56 1004.72 1004.80 1004.72 1004.64 1004.52 1004.40 1004.32 1004.28 1004.64 1004.32 1003.96 1004.28 1004.68 1004.76 1004.80 1004.88 1005.04 1005.32 1005.52 1005.68 1005.84 1006.20 1006.68 1007.28 1007.60 1007.88 1008.76 1009.80 1010.48 1010.72 1011.52 1012.80 1013.32 1014.96 1015.68 1016.52 1016.68 1017.12 1018.44 1019.00 1019.20 1019.48 1019.72 1020.20 1020.76 1021.16 1021.52 1021.84 1022.08 1022.32 1022.64 1022.84
1019.40 1018.80 1018.16 1017.60 1017.00 1016.44 1015.84 1015.12 1014.44 1013.84 1013.12 1012.24 1011.28 1010.40 1009.44 1008.60 1008.04 1007.48 1006.84 1006.28 1005.96 1005.92 1005.64 1005.64 1005.80 1005.64 1005.28 1004.92 1004.60 1004.44 1004.92 1005.04 1004.40 1004.52 1004.96 1005.12 1005.32 1005.28 1005.28 1005.64 1006.24 1006.40 1006.52 1006.68 1006.92 1007.20 1007.72 1008.32 1008.76 1009.20 1010.24 1011.20 1011.40 1012.64 1013.56 1014.56 1016.28 1016.76 1017.08 1017.08 1017.92 1019.08 1019.56 1019.76 1020.12 1020.40 1020.76 1021.28 1021.68 1022.00 1022.28 1022.48 1022.72 1022.88
1019.52 1018.92 1018.36 1017.92 1017.32 1016.80 1016.16 1015.56 1014.92 1014.20 1013.40 1012.56 1011.80 1011.24 1010.56 1009.84 1009.28 1008.60 1008.00 1007.60 1007.28 1007.08 1006.84 1006.60 1006.52 1006.52 1006.24 1005.60 1004.88 1004.88 1005.48 1005.76 1005.16 1005.00 1005.32 1005.52 1006.00 1005.84 1005.88 1006.08 1006.72 1006.96 1007.20 1007.32 1007.52 1007.68 1007.96 1008.36 1008.84 1009.16 1010.12 1011.44 1012.24 1012.56 1013.60 1013.96 1015.52 1016.84 1017.28 1017.60 1017.60 1018.20 1019.56 1020.08 1020.40 1020.68 1020.96 1021.40 1021.84 1022.16 1022.44 1022.68 1022.92 1023.08
1019.88 1019.28 1018.60 1017.92 1017.32 1016.68 1015.96 1015.40 1014.88 1014.44 1014.04 1013.56 1012.92 1012.28 1011.68 1011.00 1010.32 1009.56 1008.72 1007.96 1007.76 1007.92 1007.84 1007.68 1007.32 1007.16 1006.92 1006.32 1006.08 1005.84 1006.24 1006.68 1006.04 1005.80 1006.04 1006.36 1006.44 1006.48 1006.28 1006.72 1007.52 1007.56 1007.80 1008.04 1008.28 1008.48 1008.68 1009.04 1009.48 1009.96 1010.08 1010.52 1011.84 1013.48 1014.12 1014.64 1015.16 1016.12 1017.20 1017.76 1018.16 1019.00 1019.52 1019.92 1020.40 1020.92 1021.28 1021.60 1022.04 1022.40 1022.68 1022.84 1023.08 1023.28
1019.96 1019.32 1018.72 1018.24 1017.64 1017.16 1016.80 1016.28 1015.76 1015.16 1014.60 1014.08 1013.60 1013.08 1012.56 1012.00 1011.40 1010.68 1010.12 1009.84 1009.44 1009.00 1008.68 1008.52 1008.08 1008.12 1008.04 1007.56 1007.04 1006.84 1007.00 1007.00 1006.76 1006.72 1006.80 1007.04 1006.84 1007.12 1007.12 1007.84 1008.32 1008.28 1008.40 1008.80 1009.08 1009.40 1009.68 1010.00 1010.32 1010.64 1011.24 1012.04 1012.32 1012.48 1013.24 1015.40 1016.52 1016.48 1016.72 1017.88 1018.60 1019.32 1019.76 1020.12 1020.56 1021.12 1021.48 1021.80 1022.24 1022.56 1022.84 1023.08 1023.24 1023.40
1020.44 1019.92 1019.52 1019.08 1018.72 1018.24 1017.64 1017.12 1016.52 1015.96 1015.56 1015.04 1014.32 1013.76 1013.32 1012.84 1012.36 1011.88 1011.44 1011.12 1010.92 1010.44 1009.92 1009.40 1008.88 1009.04 1009.08 1008.68 1008.44 1008.24 1008.12 1008.00 1007.84 1007.76 1007.52 1007.88 1007.64 1007.76 1008.24 1008.72 1009.32 1009.44 1009.20 1009.44 1009.56 1009.76 1010.16 1010.68 1011.16 1011.84 1012.28 1012.92 1013.56 1014.36 1014.28 1014.00 1015.96 1016.96 1017.32 1017.80 1018.52 1019.32 1020.00 1020.44 1020.92 1021.24 1021.48 1021.76 1022.16 1022.64 1023.00 1023.24 1023.44 1023.56
1020.84 1020.56 1020.04 1019.60 1019.20 1018.88 1018.44 1018.00 1017.52 1017.00 1016.40 1015.88 1015.36 1014.72 1014.16 1013.64 1013.28 1012.96 1012.68 1012.40 1012.04 1011.68 1011.40 1010.96 1010.56 1010.16 1009.84 1009.84 1009.88 1009.76 1009.60 1009.28 1009.04 1008.76 1008.64 1008.48 1008.48 1008.84 1008.96 1009.44 1010.16 1010.20 1010.12 1010.20 1010.40 1010.52 1010.32 1010.68 1011.16 1012.24 1013.08 1013.48 1014.20 1015.16 1015.48 1015.48 1015.64 1017.08 1017.72 1018.40 1018.92 1019.48 1020.16 1020.60 1021.04 1021.44 1021.68 1022.04 1022.24 1022.64 1023.12 1023.32 1023.40 1023.68
1021.28 1021.12 1020.68 1020.24 1019.84 1019.44 1019.00 1018.68 1018.24 1017.68 1017.24 1016.68 1016.16 1015.60 1014.96 1014.60 1014.32 1014.00 1013.76 1013.40 1012.84 1012.48 1012.16 1011.92 1011.76 1011.52 1011.16 1010.92 1010.80 1010.72 1010.64 1010.40 1010.16 1009.80 1009.52 1009.44 1009.56 1009.80 1009.80 1010.36 1010.64 1010.80 1010.76 1010.96 1011.16 1011.24 1011.20 1011.16 1011.08 1011.76 1012.92 1013.96 1014.72 1015.96 1017.00 1017.08 1016.68 1017.00 1017.92 1018.84 1019.36 1019.84 1020.36 1020.80 1021.24 1021.52 1021.84 1022.20 1022.40 1022.56 1022.88 1023.24 1023.48 1023.72
1021.76 1021.44 1021.12 1020.76 1020.40 1020.00 1019.64 1019.28 1018.88 1018.44 1018.04 1017.56 1017.00 1016.52 1016.12 1015.76 1015.44 1015.00 1014.60 1014.00 1013.60 1013.40 1013.20 1012.84 1012.56 1012.40 1012.36 1012.16 1011.72 1011.52 1011.64 1011.64 1011.52 1011.08 1010.68 1010.40 1010.28 1010.20 1010.36 1010.92 1011.32 1011.56 1011.64 1011.92 1011.88 1011.92 1011.92 1012.24 1012.40 1012.48 1013.36 1014.64 1015.80 1016.76 1017.56 1017.72 1017.84 1017.92 1017.92 1018.72 1019.60 1019.96 1020.36 1020.88 1021.32 1021.80 1022.04 1022.20 1022.56 1022.64 1022.80 1023.16 1023.56 1023.96
1022.12 1021.84 1021.48 1021.08 1020.72 1020.44 1020.08 1019.76 1019.32 1018.88 1018.56 1018.24 1017.84 1017.36 1017.00 1016.72 1016.32 1015.84 1015.28 1014.72 1014.56 1014.32 1014.08 1013.88 1013.68 1013.32 1013.12 1013.08 1012.76 1012.48 1012.40 1012.48 1012.32 1012.16 1012.00 1011.64 1011.44 1011.64 1011.76 1012.00 1012.32 1012.48 1012.64 1012.72 1012.76 1012.88 1012.92 1013.16 1013.52 1014.00 1014.36 1015.20 1016.12 1016.80 1017.44 1017.88 1018.16 1018.80 1018.84 1018.72 1019.44 1020.20 1020.52 1020.92 1021.44 1021.96 1022.40 1022.64 1022.76 1022.96 1023.04 1023.24 1023.76 1024.12
1022.44 1022.16 1021.88 1021.60 1021.16 1020.80 1020.44 1020.16 1019.80 1019.40 1019.00 1018.68 1018.36 1018.08 1017.72 1017.32 1016.96 1016.52 1016.08 1015.80 1015.56 1015.28 1015.00 1014.76 1014.60 1014.40 1014.12 1013.80 1013.68 1013.64 1013.52 1013.44 1013.36 1013.24 1013.00 1012.88 1012.76 1012.72 1012.80 1012.84 1013.04 1013.32 1013.24 1013.52 1013.72 1013.84 1013.92 1014.16 1014.52 1014.88 1015.12 1015.60 1016.28 1016.96 1017.24 1018.04 1019.24 1019.52 1019.44 1019.40 1019.56 1020.16 1020.68 1020.92 1021.64 1022.16 1022.40 1022.76 1023.28 1023.40 1023.76 1024.04 1024.16 1024.36
1022.84 1022.48 1022.20 1021.96 1021.56 1021.20 1020.80 1020.48 1020.20 1019.92 1019.56 1019.16 1018.84 1018.48 1018.16 1017.88 1017.56 1017.24 1016.88 1016.56 1016.32 1016.12 1015.92 1015.80 1015.56 1015.24 1014.96 1014.72 1014.56 1014.32 1014.24 1014.32 1014.36 1014.28 1014.16 1014.00 1013.88 1013.72 1013.68 1013.72 1013.88 1014.16 1014.36 1014.72 1014.92 1015.12 1015.16 1015.36 1015.40 1015.60 1016.04 1016.52 1016.96 1017.36 1017.84 1018.48 1019.24 1019.60 1019.76 1020.04 1020.08 1020.00 1020.52 1021.08 1021.64 1022.04 1022.56 1022.80 1022.88 1023.08 1023.72 1023.84 1024.00 1024.32
1023.24 1022.84 1022.52 1022.24 1021.92 1021.60 1021.32 1020.96 1020.68 1020.32 1020.00 1019.68 1019.24 1018.84 1018.52 1018.32 1018.04 1017.80 1017.48 1017.20 1017.00 1016.80 1016.60 1016.36 1016.12 1015.96 1015.80 1015.52 1015.32 1015.16 1015.04 1015.04 1014.96 1014.88 1014.76 1014.68 1014.64 1014.60 1014.48 1014.32 1014.56 1014.76 1015.08 1015.68 1015.92 1016.08 1016.40 1016.52 1016.44 1016.32 1016.48 1016.96 1017.24 1017.36 1017.76 1018.48 1019.40 1019.92 1020.28 1020.68 1020.64 1020.64 1020.68 1020.76 1021.16 1021.56 1022.08 1022.64 1022.76 1023.20 1023.60 1023.92 1024.20 1024.36
1023.76 1023.36 1022.92 1022.56 1022.28 1021.96 1021.80 1021.48 1021.12 1020.80 1020.40 1020.12 1019.76 1019.40 1019.00 1018.64 1018.40 1018.00 1017.56 1017.32 1017.28 1017.28 1017.20 1017.00 1016.72 1016.44 1016.32 1016.28 1016.08 1015.80 1015.72 1015.76 1015.68 1015.60 1015.52 1015.40 1015.24 1015.28 1015.24 1015.24 1015.44 1015.60 1015.80 1016.44 1016.84 1017.12 1017.24 1017.04 1016.88 1016.80 1017.00 1017.12 1017.32 1017.84 1019.00 1019.36 1019.96 1020.52 1020.88 1021.04 1021.20 1021.20 1021.20 1021.28 1021.36 1021.44 1021.68 1022.08 1022.64 1023.44 1024.00 1024.28 1024.28 1024.56
1024.04 1023.80 1023.36 1023.00 1022.64 1022.36 1022.16 1021.92 1021.64 1021.36 1021.00 1020.68 1020.32 1020.00 1019.56 1019.20 1018.88 1018.60 1018.36 1018.12 1017.92 1017.84 1017.80 1017.56 1017.32 1016.96 1016.72 1016.60 1016.60 1016.52 1016.32 1016.20 1016.32 1016.28 1016.24 1016.16 1016.08 1016.04 1016.20 1016.36 1016.44 1016.56 1016.76 1017.16 1017.40 1017.44 1017.44 1017.40 1017.28 1017.32 1017.52 1017.80 1018.24 1018.40 1019.40 1019.92 1020.16 1020.52 1020.92 1021.20 1021.48 1021.64 1021.84 1021.84 1021.88 1022.08 1022.24 1022.32 1022.28 1022.20 1022.40 1022.96 1023.76 1024.32
1024.28 1024.00 1023.72 1023.40 1023.12 1022.80 1022.52 1022.32 1022.04 1021.76 1021.44 1021.12 1020.84 1020.52 1020.24 1019.92 1019.56 1019.32 1019.12 1018.92 1018.72 1018.52 1018.32 1018.08 1017.84 1017.64 1017.36 1017.16 1017.04 1017.04 1016.96 1016.92 1016.96 1016.96 1016.96 1016.96 1016.80 1016.68 1016.64 1016.72 1016.80 1016.96 1017.12 1017.32 1017.60 1017.80 1017.84 1017.80 1017.84 1017.72 1018.04 1018.68 1018.92 1019.28 1019.88 1020.12 1020.52 1020.76 1021.00 1021.32 1021.56 1021.80 1022.28 1022.40 1022.44 1022.44 1022.52 1022.68 1022.80 1022.80 1022.84 1022.88 1022.92 1023.00
1024.48 1024.24 1024.00 1023.68 1023.44 1023.16 1022.84 1022.56 1022.36 1022.16 1021.84 1021.56 1021.24 1020.96 1020.68 1020.36 1020.12 1019.76 1019.52 1019.36 1019.20 1019.00 1018.72 1018.56 1018.36 1018.20 1018.04 1017.88 1017.60 1017.40 1017.52 1017.36 1017.24 1017.40 1017.36 1017.28 1017.24 1017.12 1017.08 1017.08 1017.20 1017.36 1017.60 1017.72 1017.80 1018.08 1018.16 1018.32 1018.48 1018.64 1018.96 1019.28 1019.40 1019.76 1020.04 1020.20 1020.64 1020.88 1021.12 1021.44 1021.80 1022.00 1022.16 1022.20 1022.36 1022.64 1022.84 1023.16 1023.36 1023.36 1023.28 1023.04 1023.04 1023.32
Wind_Speed
10 8 10 9 8 8 7 6 6 6 7 7 8 9 10 9 8 6 7 8 8 7 9 7 8 11 10 10 9 9 9 11 12 10 10 10 9 14 18 18 18 17 18 18 17 18 16 17 16 16 16 16 17 17 13 13 12 12 12 12 13 8 13 10 11 13 14 16 15 12 10 11 11 9
10 10 9 8 8 7 8 8 8 8 8 8 8 8 8 7 10 8 8 9 7 6 6 8 6 9 11 10 9 9 10 12 14 10 11 10 10 15 18 18 18 18 18 18 17 17 17 18 16 18 16 17 17 17 15 12 13 13 14 15 14 9 12 12 10 10 13 13 13 11 11 12 11 10
10 11 11 10 9 7 8 9 8 7 7 7 7 8 8 9 10 9 8 10 5 7 7 9 8 7 11 10 10 9 9 11 15 11 10 11 13 16 16 19 19 19 19 18 17 16 17 18 17 18 17 18 18 16 16 14 13 16 17 15 13 10 12 13 13 13 16 13 11 10 11 9 9 10
10 11 10 11 10 9 8 8 8 9 9 9 9 8 8 9 10 10 10 11 11 6 8 7 8 8 9 10 10 11 9 10 17 11 11 12 14 11 10 17 19 19 19 18 17 16 17 18 18 18 18 18 17 17 17 16 18 17 15 14 12 11 12 13 13 16 17 14 12 11 12 9 10 9
11 11 10 11 13 11 10 8 7 7 8 9 9 9 9 9 9 10 11 11 12 6 4 5 7 8 8 9 11 11 10 9 10 11 10 10 10 10 9 11 17 19 19 18 17 17 16 17 18 19 18 19 18 18 17 17 16 16 15 14 12 12 13 13 14 15 16 12 14 14 12 10 10 10
11 11 12 12 13 13 12 9 9 8 9 9 9 9 9 10 10 10 10 11 11 12 5 6 5 6 9 10 10 12 12 11 10 12 10 8 10 10 9 9 11 19 19 19 18 18 17 17 18 19 18 19 18 18 18 18 17 16 16 14 13 13 13 14 15 14 13 12 14 14 13 12 11 11
12 13 12 13 13 12 14 13 9 9 10 10 10 11 10 11 11 11 12 10 11 12 10 7 7 7 8 11 10 12 11 11 12 13 12 10 9 8 10 10 9 17 19 20 19 19 18 18 18 18 18 18 19 19 18 18 17 16 16 15 14 14 14 15 15 15 13 13 14 14 14 13 12 13
11 12 12 12 13 13 13 14 12 9 9 10 10 12 11 11 12 11 11 13 11 9 11 7 8 8 9 9 8 10 10 11 10 11 10 10 11 10 10 10 10 14 20 19 19 19 19 19 18 18 19 18 19 18 18 18 17 17 16 16 15 15 15 15 16 15 13 13 15 14 13 13 14 14
11 11 11 12 12 12 12 13 13 11 11 11 9 10 10 11 10 10 11 12 11 11 12 7 7 7 7 8 8 9 11 8 8 10 11 12 12 11 10 9 9 13 20 19 19 18 19 19 19 19 19 19 19 19 18 18 18 17 17 16 15 15 15 15 15 15 13 13 14 14 14 13 13 14
11 10 12 11 11 11 10 12 13 14 14 13 12 11 10 10 10 11 11 10 11 12 11 9 7 6 7 4 4 9 11 10 9 7 6 6 6 7 8 8 7 7 9 9 10 13 15 18 19 19 19 19 19 19 19 18 18 18 17 17 16 15 15 15 15 15 14 12 13 14 14 13 12 13
10 9 9 10 11 10 10 11 12 14 16 14 15 13 12 11 11 11 11 11 12 11 11 10 8 7 7 9 9 9 11 12 12 12 9 6 7 9 11 11 8 7 8 11 14 14 14 15 15 18 19 19 19 19 19 19 19 18 18 17 17 16 15 15 15 15 14 13 12 12 12 12 11 12
12 13 13 12 12 12 12 13 13 12 13 14 15 14 12 11 11 11 11 11 11 11 10 11 9 8 8 6 5 4 7 7 7 9 11 12 10 11 11 12 12 9 9 10 8 7 9 11 14 16 17 19 19 19 18 19 18 18 17 17 17 16 16 15 15 14 14 13 13 12 11 11 10 9
13 13 12 12 12 15 19 19 16 16 14 11 13 15 14 13 12 11 9 9 11 11 11 10 9 9 9 9 10 9 10 12 12 10 10 11 12 11 10 9 9 10 12 10 9 9 10 9 9 9 9 10 15 15 17 14 19 19 17 17 17 16 16 15 14 14 13 13 13 12 11 11 10 9
14 14 13 13 21 21 20 17 18 18 18 19 14 12 12 15 14 12 11 9 10 11 11 12 10 10 11 9 11 11 11 11 9 10 10 11 9 8 6 4 1 6 8 8 10 10 9 10 9 9 10 9 11 8 10 10 13 16 18 17 17 17 16 16 15 15 14 13 12 12 11 11 10 9
15 14 14 13 16 17 18 17 19 17 19 20 22 23 20 16 14 16 14 12 10 10 11 10 10 12 12 11 11 11 10 12 14 12 13 12 9 11 10 8 5 6 11 11 11 10 10 11 12 11 11 11 10 9 11 14 17 17 18 18 18 18 17 16 16 15 14 13 13 12 11 11 10 10
13 15 14 13 11 12 15 17 15 18 20 21 21 22 21 21 21 17 17 14 10 12 12 12 13 12 13 13 11 11 11 11 9 10 12 12 12 12 13 11 13 10 14 11 11 11 8 11 11 11 11 10 10 12 13 16 17 18 18 18 18 17 17 16 15 15 14 14 13 12 11 11 10 10
12 13 14 14 12 11 21 17 14 15 18 23 25 22 20 19 18 17 18 20 17 8 10 12 13 15 13 12 13 13 14 11 14 12 12 12 12 12 13 13 10 8 16 12 11 12 11 11 12 11 11 10 9 10 13 17 18 19 19 18 17 17 17 16 16 15 14 13 12 12 12 12 11 10
13 13 13 13 14 14 15 14 15 17 17 17 17 16 14 13 17 18 16 18 21 18 12 10 13 12 9 13 13 14 13 14 14 13 13 12 13 14 14 16 16 10 14 18 13 8 8 10 10 11 9 9 8 9 12 17 18 18 19 18 18 17 17 16 16 15 13 12 12 12 12 12 11 11
13 13 12 13 13 15 15 14 18 19 17 17 15 15 15 14 14 15 13 10 10 12 14 13 13 12 13 14 13 12 13 16 14 15 16 17 17 15 7 3 6 6 10 8 9 12 7 8 10 9 7 8 8 6 10 17 17 18 18 18 17 17 17 16 15 14 13 13 13 14 13 13 13 12
12 13 13 13 14 15 16 20 24 23 18 16 17 17 15 15 15 15 14 15 14 13 12 12 12 11 13 15 13 11 12 12 10 6 3 3 4 6 6 9 4 6 8 13 13 7 7 8 9 4 2 5 6 5 6 14 17 17 17 17 17 17 16 15 15 14 15 15 15 15 14 14 14 14
12 12 14 15 14 15 16 21 25 25 24 15 17 16 16 14 14 15 14 15 17 18 19 18 19 18 17 18 18 17 19 14 12 9 9 11 11 10 10 7 6 5 8 10 10 6 8 9 8 7 3 4 4 3 5 8 15 17 17 17 17 16 16 16 15 16 16 16 16 16 16 16 15 17
11 14 23 20 15 15 16 24 26 25 22 16 16 16 16 16 14 14 14 11 10 14 15 17 18 18 16 17 17 17 17 16 15 13 15 11 10 11 12 12 10 7 9 11 11 10 8 9 8 9 5 6 4 2 1 4 9 16 16 18 17 16 16 16 17 17 17 17 16 14 17 17 16 11
10 12 15 21 18 17 20 25 25 25 22 15 16 16 16 14 14 15 15 13 10 7 6 8 9 11 12 11 11 13 19 19 17 16 14 11 14 14 12 10 7 6 6 7 11 9 7 12 9 11 7 3 3 2 2 4 5 6 6 8 9 14 16 17 18 18 18 18 18 18 18 17 13 9
13 12 12 15 18 23 25 24 24 24 24 17 16 15 14 14 16 14 14 13 10 9 9 9 10 11 10 11 10 10 12 14 18 16 12 11 12 11 12 12 13 14 10 11 15 11 6 10 11 7 4 9 5 4 4 4 5 6 7 8 8 12 15 16 14 17 18 17 18 17 17 15 12 8
11 12 13 12 18 24 25 24 24 24 23 22 15 13 14 16 19 20 16 16 13 10 8 7 7 7 7 8 9 9 10 11 12 12 12 12 12 12 12 12 12 9 3 12 17 12 9 10 11 7 5 5 7 9 5 6 5 6 7 9 10 9 9 8 8 9 12 16 16 15 14 13 12 10
11 12 12 13 19 25 24 23 23 23 23 25 13 17 22 23 27 14 11 11 8 7 5 4 4 4 5 6 6 6 8 9 10 11 11 12 12 12 13 15 14 11 7 13 21 13 12 11 14 12 7 9 6 9 11 6 6 6 7 7 8 9 10 10 9 9 9 8 8 8 8 9 9 13
12 11 13 14 23 24 24 23 23 22 24 18 18 26 23 22 26 16 4 4 3 1 1 3 4 3 2 1 2 4 4 2 2 4 4 4 6 6 4 5 8 11 7 14 17 14 13 11 12 16 11 11 14 7 9 11 8 7 8 7 8 8 8 9 10 9 8 8 7 10 9 9 10 10
11 12 13 16 24 23 24 23 22 20 21 19 25 25 25 22 19 13 12 9 7 4 5 5 4 4 3 4 5 5 3 4 5 5 4 4 4 5 6 6 6 8 11 13 12 10 10 11 9 8 16 17 16 15 10 4 10 12 12 7 7 7 7 8 9 9 7 7 7 6 7 6 5 8
12 16 20 22 21 22 22 23 20 17 19 24 23 25 25 21 13 14 12 11 10 10 9 7 5 5 5 5 5 6 5 3 8 8 7 7 7 8 10 9 8 7 8 11 11 8 10 14 14 10 9 11 13 10 14 13 11 9 11 14 10 6 7 7 9 9 8 6 6 5 5 6 5 4
19 19 19 20 20 18 18 15 14 13 16 21 24 25 23 15 14 13 13 13 13 12 9 9 8 7 5 5 6 8 6 4 7 7 7 7 6 6 9 10 9 9 8 5 6 9 10 10 11 14 12 9 13 14 13 16 10 10 8 10 12 9 6 7 7 7 8 7 5 5 4 4 5 6
12 15 15 14 16 15 18 17 16 16 17 16 17 15 15 14 14 13 12 12 13 13 12 10 8 7 6 4 8 10 9 7 7 8 6 8 6 7 8 11 9 9 9 9 8 6 7 9 11 14 14 11 9 13 13 14 15 11 9 9 11 12 8 7 6 7 7 6 6 5 5 5 4 3
12 12 12 14 12 14 14 15 13 14 13 13 14 14 13 14 15 16 19 18 14 13 11 10 10 10 9 9 8 9 10 6 8 8 8 5 7 5 7 9 8 8 9 10 11 11 11 8 8 7 11 16 17 12 10 11 14 14 12 9 9 9 8 8 8 7 6 7 6 5 4 4 4 4
10 11 13 14 15 15 15 14 14 14 14 14 13 15 15 13 14 14 14 14 14 13 13 12 12 13 11 10 9 9 10 10 10 8 9 8 9 9 11 11 7 7 10 10 11 11 12 13 12 12 12 10 10 16 18 13 8 10 13 12 11 9 8 7 8 7 7 7 5 5 5 4 4 4
9 11 11 12 13 13 14 14 14 14 13 14 14 13 14 14 14 14 13 13 13 13 13 13 14 13 11 12 12 11 11 10 11 10 10 8 8 11 11 11 9 7 8 9 9 11 13 14 15 14 14 14 13 10 6 16 15 11 11 11 11 11 8 8 7 7 6 6 7 6 4 3 3 3
10 11 12 12 12 12 13 13 13 13 13 13 13 13 12 13 14 14 13 12 11 11 11 12 13 12 12 12 11 11 10 10 10 10 9 10 12 11 11 13 10 9 9 9 8 7 12 14 16 15 13 13 13 12 17 10 15 12 11 10 10 10 9 7 7 6 6 5 6 7 5 4 3 3
10 9 10 11 11 11 12 12 12 13 13 13 13 12 13 14 13 13 14 12 12 11 12 11 11 11 11 11 11 11 10 10 10 9 10 11 11 11 12 12 11 10 10 10 9 7 6 9 14 16 15 13 13 11 6 14 11 12 12 9 8 8 8 8 6 6 6 5 4 7 6 5 4 2
9 9 9 10 10 11 11 11 11 11 12 12 13 12 12 12 12 12 13 13 13 12 12 12 12 10 10 9 9 10 10 10 9 9 9 10 11 11 12 11 11 10 11 9 9 9 9 10 9 12 14 13 12 10 6 2 13 12 9 11 8 7 9 8 7 6 4 6 4 4 6 5 4 3
9 8 9 10 10 10 10 10 10 11 11 11 11 12 11 11 11 12 12 13 12 11 12 11 11 12 10 9 9 9 9 8 9 9 9 9 10 10 10 10 10 9 9 9 9 9 9 11 11 11 11 12 12 11 10 5 5 7 9 8 10 8 7 8 7 6 5 3 5 2 4 6 5 4
8 8 9 9 9 9 9 9 9 10 11 10 10 10 10 11 11 11 11 11 11 11 11 12 11 11 11 10 9 9 9 9 9 9 9 9 9 9 9 9 10 9 10 10 9 9 9 9 9 8 8 9 10 8 9 9 6 3 8 9 9 9 6 7 7 6 6 5 5 6 7 5 6 7
9 8 8 8 8 8 9 9 9 8 9 9 9 9 9 10 10 10 11 11 10 10 9 9 10 11 10 10 9 8 9 9 8 8 8 8 8 8 8 8 8 8 9 9 8 8 8 6 6 7 7 8 8 8 9 8 5 4 6 9 8 6 8 7 7 7 6 6 6 7 6 4 5 2
8 8 8 8 8 8 8 8 8 8 8 8 9 9 10 9 10 9 9 10 9 10 10 10 10 10 10 9 9 8 8 8 8 8 7 8 8 8 8 8 8 7 9 8 7 7 6 4 6 12 13 10 9 9 10 9 7 5 6 5 9 8 7 10 10 8 6 5 7 7 6 5 5 3
7 8 8 8 8 8 7 8 8 8 8 8 8 8 9 9 9 12 11 11 10 10 9 9 9 8 8 8 7 7 8 7 7 8 7 7 7 8 10 8 8 7 9 8 7 6 3 4 7 9 9 8 8 9 8 8 8 6 4 4 5 8 10 8 7 8 11 10 9 7 5 5 4 4
7 7 8 8 8 7 7 7 7 7 7 7 8 8 8 9 9 10 9 10 9 9 8 8 7 7 8 7 7 6 6 7 6 7 7 7 7 8 8 8 7 8 8 8 6 5 5 5 6 7 7 7 5 8 9 7 7 7 6 6 5 6 7 11 13 12 11 10 6 4 6 7 6 4
7 7 7 7 8 8 7 7 7 7 7 7 7 7 8 8 9 9 8 8 8 7 6 7 7 7 7 6 6 6 6 5 6 6 6 6 6 6 6 7 7 7 8 8 7 6 5 6 5 6 8 6 6 8 8 8 7 6 6 5 5 7 7 5 6 9 10 12 12 8 6 6 5 11
7 6 7 7 7 7 7 7 7 7 7 7 7 7 8 8 8 8 9 9 8 8 7 7 7 6 6 6 6 6 5 5 6 6 6 6 6 6 7 7 7 8 7 6 7 6 6 6 6 7 6 6 5 6 6 7 7 6 6 7 7 6 5 5 6 6 6 5 10 13 7 8 12 13
Wind_Direction
306 292 286 279 272 266 255 243 238 228 220 216 210 211 214 210 229 227 228 226 230 212 205 204 213 206 205 204 203 200 202 200 190 191 196 194 194 197 198 199 200 199 198 196 194 191 191 186 186 184 181 176 172 171 177 178 180 180 183 190 200 193 173 181 183 176 175 177 174 175 165 132 137 129
319 312 301 284 273 263 255 249 242 232 227 222 218 213 215 207 219 221 231 244 209 221 208 213 210 196 205 201 200 201 202 197 187 192 194 194 195 190 195 197 198 195 195 193 191 190 192 189 186 184 179 176 175 171 170 180 180 181 189 195 201 180 170 173 185 184 178 183 172 164 148 152 146 152
319 316 311 306 288 270 257 248 246 237 234 226 216 217 210 213 220 224 227 244 233 190 213 217 211 194 201 197 199 201 202 193 189 192 194 196 192 185 193 196 197 194 193 191 189 190 192 189 184 184 180 178 178 174 172 180 183 189 192 195 196 176 172 172 183 192 189 189 162 156 161 156 159 161
318 314 313 315 307 285 264 250 240 238 234 231 228 220 215 216 215 216 227 231 244 195 211 210 210 198 194 193 195 201 202 192 186 192 194 195 185 183 193 198 195 194 192 190 189 189 191 190 186 182 180 179 179 177 177 181 193 194 191 192 190 176 173 174 181 193 192 193 169 163 171 167 169 171
318 319 313 312 311 304 281 267 257 247 240 233 228 223 221 222 213 210 217 224 240 242 217 206 208 203 185 199 199 197 198 185 191 196 197 187 183 187 189 193 198 194 192 190 190 191 190 189 189 183 182 179 179 178 178 180 189 190 188 190 186 176 175 176 179 197 195 189 174 172 176 172 175 178
320 317 313 309 314 312 299 272 261 251 249 243 241 231 224 221 221 210 216 221 227 235 203 219 221 212 193 207 196 197 193 197 183 193 194 191 188 188 186 186 196 198 192 190 189 191 190 189 191 184 183 179 178 178 177 178 185 187 185 187 185 180 179 179 179 194 200 185 181 177 177 177 178 181
321 319 317 313 314 316 312 299 273 265 260 252 245 242 233 227 223 215 214 216 225 230 231 205 205 201 203 206 198 201 200 194 187 191 193 188 189 192 186 188 192 195 195 191 189 191 190 189 191 183 183 180 179 178 178 179 181 186 182 184 184 184 181 181 180 187 198 182 184 182 179 178 180 186
320 318 316 313 313 312 310 306 297 277 268 259 251 247 239 231 228 218 216 217 220 222 232 213 196 202 198 214 201 197 197 190 190 195 191 188 190 188 187 192 192 192 194 192 191 191 190 189 190 184 182 182 180 179 179 179 181 183 183 183 185 184 184 182 181 185 189 182 183 184 183 182 186 190
312 310 308 306 308 306 305 304 302 292 273 266 256 248 242 238 230 222 216 218 216 221 225 217 207 202 204 207 196 187 188 190 184 196 197 192 192 188 186 188 196 185 191 193 193 191 190 189 189 186 184 183 181 180 180 180 181 183 182 183 185 186 185 183 183 186 184 182 183 183 186 187 191 196
310 302 300 300 299 299 298 303 303 304 303 294 269 253 245 240 233 227 221 214 216 220 228 218 214 196 198 198 182 187 189 183 186 182 203 191 167 171 171 187 187 180 183 190 197 194 190 189 188 188 185 184 183 182 181 181 182 183 183 183 186 186 185 185 185 187 185 183 184 187 187 188 194 200
303 291 298 298 298 295 299 303 310 317 316 310 300 273 257 243 234 229 222 215 216 218 221 224 214 205 208 198 196 203 196 192 183 172 181 175 160 171 182 189 193 180 183 198 190 188 187 187 189 189 186 186 185 183 183 183 183 183 183 184 186 185 185 186 187 189 189 187 185 185 181 181 186 198
333 331 331 329 325 320 321 327 324 326 325 323 312 302 271 251 244 236 223 213 213 215 216 218 215 210 204 209 220 197 184 187 198 189 182 186 172 185 199 194 182 181 175 182 189 192 186 189 191 189 190 190 187 186 184 184 183 183 183 184 184 184 185 187 188 189 190 189 187 184 177 174 180 192
336 334 332 329 325 324 322 318 319 319 320 321 323 318 307 275 248 246 232 220 211 212 212 219 211 208 209 204 191 182 182 191 191 184 197 195 188 184 188 199 195 180 178 181 180 186 183 178 185 183 193 201 193 189 184 186 185 184 183 183 181 183 185 186 188 188 188 187 184 183 179 179 183 190
338 335 332 327 329 328 327 325 324 326 325 325 322 311 315 310 282 249 239 227 213 210 211 213 205 206 214 201 197 195 193 192 189 184 185 196 193 180 186 53 185 166 172 165 186 195 181 182 185 187 197 195 190 190 188 189 185 185 181 180 182 184 185 186 187 187 187 185 183 181 182 181 180 180
337 335 332 330 329 330 331 332 330 327 325 323 321 319 314 303 292 286 258 232 216 213 215 209 206 209 209 206 200 202 187 194 191 185 187 192 179 186 166 182 197 206 173 181 186 195 186 184 191 191 196 189 185 190 195 187 183 179 179 181 183 184 185 186 186 185 184 184 183 183 180 175 172 173
335 335 333 330 327 326 330 332 331 326 324 321 318 316 312 308 297 270 263 263 235 216 215 208 210 206 211 208 195 202 192 197 189 190 188 194 186 185 191 185 193 191 181 174 184 196 182 190 196 187 196 188 188 193 187 184 181 177 180 182 182 182 183 182 182 181 182 183 183 177 169 167 167 171
333 334 332 328 327 325 331 333 330 329 325 322 319 313 308 303 291 279 266 256 257 251 228 217 211 207 204 202 206 195 195 185 190 188 193 194 194 195 195 200 195 165 182 176 186 194 186 184 192 196 196 191 183 186 186 183 180 179 181 179 179 179 177 177 177 179 181 180 172 165 161 161 164 160
330 332 332 328 326 327 330 331 332 330 324 319 315 313 309 301 298 286 261 255 254 249 242 230 224 218 197 212 206 200 189 185 194 189 198 188 194 200 204 203 201 177 172 183 176 184 174 183 185 199 191 183 181 186 185 180 181 179 178 178 176 176 174 174 175 176 171 164 158 156 154 153 147 138
330 331 330 329 326 327 328 328 332 328 322 318 311 305 300 294 291 286 279 260 240 241 233 243 239 226 209 215 211 196 191 198 197 192 192 189 196 201 205 45 73 132 183 159 148 190 171 169 185 194 164 170 177 172 170 175 178 177 176 175 174 173 172 172 171 164 157 152 149 149 147 141 136 135
333 331 330 333 331 329 326 327 329 327 321 313 310 304 298 295 293 286 272 257 246 238 238 235 235 230 218 212 207 196 196 201 189 179 155 124 130 161 177 198 159 166 174 173 181 163 159 173 162 106 69 130 150 147 154 173 173 174 172 172 173 172 170 167 160 153 150 148 147 144 141 136 132 129
334 332 332 336 334 330 327 328 328 325 326 314 311 305 300 293 291 289 284 256 240 235 233 236 235 229 220 213 211 202 196 189 182 178 179 191 179 172 186 189 168 192 161 190 181 125 145 162 152 127 94 108 113 135 159 165 172 169 171 171 171 169 165 158 152 149 147 145 142 140 136 133 129 124
336 332 333 334 333 329 327 328 327 327 326 318 313 306 299 298 293 287 282 269 245 228 229 236 237 233 224 213 208 201 195 192 182 182 198 181 168 189 191 190 185 172 178 185 171 153 159 143 128 118 114 85 49 39 41 146 169 169 171 171 168 164 157 151 147 144 143 142 139 136 136 135 130 123
338 333 333 333 332 332 329 328 328 327 328 318 314 309 301 290 284 277 279 269 252 231 218 235 239 247 247 236 213 208 199 190 192 197 196 163 181 192 192 183 139 166 210 192 169 142 147 146 160 140 127 92 83 54 75 130 135 142 140 147 150 149 144 143 143 142 141 140 140 140 139 136 129 120
338 338 335 333 332 333 332 330 329 328 328 326 314 313 313 303 288 280 279 267 249 242 217 222 221 228 224 219 215 207 197 199 201 204 197 182 184 186 187 185 182 190 186 181 177 155 152 158 153 174 138 139 148 139 111 98 112 120 129 128 127 133 130 132 134 137 138 139 139 140 139 137 131 124
337 336 335 334 332 334 333 331 331 331 331 330 320 313 311 299 287 280 270 272 241 229 224 223 223 227 219 214 209 203 197 197 203 205 200 196 189 185 186 188 192 202 155 171 167 136 157 165 154 138 68 73 123 125 120 106 103 120 130 133 131 134 131 126 124 124 128 131 134 136 138 140 138 134
343 339 336 334 332 334 333 334 334 334 335 334 332 326 318 321 331 298 242 258 255 222 213 191 179 202 209 211 210 209 203 194 197 202 201 201 196 194 193 188 184 193 176 174 167 158 138 167 165 147 131 123 125 122 127 118 113 115 113 117 127 134 133 130 124 125 129 130 127 128 131 130 131 134
337 335 335 332 335 335 337 338 338 335 339 343 339 333 338 345 348 343 302 259 230 158 99 100 100 70 37 324 257 202 163 112 151 192 194 192 189 182 175 189 194 190 146 163 174 164 159 157 167 154 149 134 131 132 131 137 134 124 113 119 119 120 124 126 127 130 129 125 119 114 106 102 108 99
337 337 338 337 337 339 341 343 342 340 347 347 343 347 348 356 2 2 3 21 25 51 70 67 70 59 55 68 53 5 336 114 94 75 65 70 82 95 86 76 96 126 142 159 166 165 153 145 154 152 145 146 143 148 139 90 128 140 130 114 108 119 125 123 122 120 120 120 121 124 119 117 107 100
340 336 337 340 342 341 344 346 345 349 349 348 352 355 356 1 13 10 13 15 28 37 28 27 36 51 50 63 69 56 5 55 94 85 69 68 72 87 81 69 62 69 123 155 160 146 152 151 148 138 133 138 131 136 136 142 140 139 138 132 122 118 111 115 122 124 124 120 125 126 134 133 122 108
341 341 342 344 345 345 347 350 355 352 350 352 0 360 0 7 8 16 19 22 25 25 22 26 17 9 12 39 58 58 33 5 67 88 90 87 75 77 86 79 58 52 50 75 122 140 139 138 139 140 135 135 135 135 136 131 126 128 134 123 117 94 93 116 118 121 124 123 112 103 89 95 112 121
349 344 347 346 344 349 347 354 356 360 356 360 4 4 2 7 8 11 23 30 31 23 22 18 17 5 354 10 50 59 52 29 39 48 67 81 59 71 82 85 76 65 55 58 61 86 118 126 136 139 130 121 117 131 137 128 127 131 121 125 133 133 138 119 120 115 113 108 100 92 94 95 101 96
348 349 348 354 359 357 1 1 3 5 2 2 4 5 4 6 8 10 15 27 33 31 25 27 23 22 8 26 37 51 55 37 39 48 55 51 75 55 81 76 68 78 73 68 66 61 66 83 101 96 119 136 131 123 112 123 131 132 125 120 104 102 115 126 113 102 106 111 106 102 105 114 116 106
351 2 3 4 2 4 1 1 1 2 3 2 3 8 7 8 9 13 19 20 20 20 25 25 31 29 13 15 27 47 54 40 41 34 60 44 77 67 68 71 54 74 93 89 85 76 76 72 66 80 86 76 96 126 130 116 103 119 123 119 118 117 119 109 119 121 120 109 110 111 104 81 91 115
4 6 4 4 3 360 360 359 2 2 3 0 2 5 7 10 13 13 15 18 16 17 20 21 30 29 21 26 24 33 42 45 44 42 52 55 58 74 73 70 55 44 71 83 91 107 103 96 91 82 79 75 67 49 75 123 123 122 116 122 121 126 126 126 121 128 130 138 137 124 105 85 69 77
12 4 5 2 2 2 360 2 359 360 0 2 2 4 5 11 12 13 16 11 15 20 23 24 25 24 28 32 29 32 30 40 45 50 51 60 61 65 72 75 62 53 61 68 68 82 111 115 111 103 95 94 78 55 27 43 119 114 118 115 128 128 132 129 129 125 121 113 122 120 109 93 77 46
6 3 3 2 2 359 2 1 359 0 2 360 4 3 9 11 10 12 11 7 19 21 23 25 27 26 26 26 25 28 26 31 36 44 54 58 63 65 66 68 65 57 56 55 60 53 72 104 118 119 120 116 110 103 69 13 55 130 120 126 123 125 125 124 117 114 114 117 125 130 127 139 136 93
0 359 0 3 359 1 2 360 360 0 2 2 2 7 8 9 6 9 6 11 23 22 22 24 24 23 23 16 23 31 30 27 30 31 43 51 57 57 62 58 56 54 57 51 53 58 60 66 68 99 108 107 104 99 73 26 42 35 130 125 125 128 132 124 121 109 107 120 114 115 135 133 137 123
360 355 358 357 360 358 360 360 1 4 4 5 5 5 8 7 7 7 8 19 19 20 19 23 21 19 21 22 21 25 30 28 31 37 36 45 58 60 63 68 57 54 59 54 53 59 67 72 76 77 84 92 101 100 104 72 67 17 14 119 129 132 119 124 116 122 96 59 100 72 94 107 111 115
359 356 357 353 351 354 356 355 359 3 4 6 7 7 7 10 9 11 14 17 16 18 18 22 21 21 22 19 25 30 34 32 33 30 35 36 46 58 59 64 66 50 59 58 51 54 60 73 77 84 97 111 117 128 124 117 85 68 33 57 126 120 131 127 123 119 121 109 93 81 69 85 95 100
352 353 354 352 348 349 352 353 356 355 0 4 6 6 10 11 13 14 17 16 18 18 22 22 23 24 24 24 21 27 36 37 36 37 36 39 38 47 55 58 68 73 68 65 60 50 54 62 80 92 90 86 94 93 100 98 101 71 65 28 27 135 141 132 133 132 113 121 123 106 104 93 74 13
351 354 349 349 347 352 351 353 353 354 359 357 3 6 11 11 15 14 18 21 21 21 19 19 22 28 26 22 24 30 37 31 32 30 34 41 42 42 47 57 57 60 76 70 67 62 49 27 82 99 100 105 107 103 92 91 84 79 57 31 30 52 123 145 144 142 132 142 120 115 113 117 122 75
349 348 342 348 348 348 353 352 354 356 357 355 0 5 7 11 11 12 15 18 24 23 23 19 16 20 26 23 20 26 39 34 28 26 27 32 37 39 37 45 56 54 70 70 70 75 66 74 93 93 102 104 104 104 108 114 116 95 87 71 48 41 51 79 110 120 139 143 128 104 84 65 67 66
350 344 344 342 345 348 354 352 353 357 355 354 357 358 8 12 12 12 10 11 13 19 16 13 11 16 19 23 26 28 32 28 26 29 29 32 41 48 50 51 59 66 78 80 74 76 66 65 77 81 71 70 71 102 111 111 103 105 102 93 87 72 56 65 79 76 60 45 41 126 153 154 136 157
342 344 341 343 346 346 347 354 352 354 356 360 355 360 7 9 12 9 9 7 9 10 10 14 11 13 11 13 25 30 26 26 33 36 35 37 44 55 63 60 61 67 74 82 80 63 61 55 44 69 79 80 94 103 112 109 102 105 108 102 94 91 94 90 76 69 59 45 35 44 100 125 175 171
336 341 340 342 347 348 350 350 359 355 1 1 3 7 6 9 9 6 9 8 7 3 8 14 13 12 10 12 23 28 12 23 40 38 42 44 46 50 52 55 58 61 64 75 88 70 58 61 58 62 67 71 72 99 100 104 111 109 99 102 100 99 110 113 103 85 74 56 19 21 28 99 109 110